Location: Unspecified
(40.7945°N, 0.0000°E)
Time: 08:48:59
(UTC+00:00)

Tiros 1 - All Passes

Search period start: 24 January 2021 00:00
Search period end: 03 February 2021 00:00
Orbit: 630 x 663 km, 48.4° (Epoch: 24 January)

Date Brightness Start Highest point End Pass type
(mag) Time Alt. Az. Time Alt. Az. Time Alt. Az.
24 Jan - 00:18:11 10° WNW 00:22:38 48° SW 00:27:05 10° SE night (unlit)
24 Jan - 16:13:21 10° S 16:16:37 19° SE 16:19:53 10° E daylight
24 Jan - 17:53:41 10° WSW 17:58:20 90° SSW 18:02:59 10° ENE visible
24 Jan - 19:36:38 10° WNW 19:40:54 36° NNW 19:45:11 10° NE visible
24 Jan - 21:19:40 10° WNW 21:23:54 34° N 21:28:08 10° ENE visible
24 Jan - 23:01:55 10° WNW 23:06:32 81° NNE 23:11:11 10° ESE night (unlit)
25 Jan - 00:44:46 10° W 00:48:20 22° SW 00:51:54 10° S night (unlit)
25 Jan - 16:37:55 10° SSW 16:42:18 41° SE 16:46:40 10° ENE daylight
25 Jan - 18:19:53 10° W 18:24:26 52° NNW 18:28:59 10° NE visible
25 Jan - 20:03:08 10° WNW 20:07:18 31° N 20:11:26 10° ENE visible
25 Jan - 21:45:45 10° NW 21:50:13 46° NNE 21:54:40 10° E night (unlit)
25 Jan - 23:27:59 10° WNW 23:32:29 52° SW 23:36:58 10° SE night (unlit)
26 Jan - 15:23:25 10° S 15:26:30 17° SE 15:29:34 10° E daylight
26 Jan - 17:03:30 10° SW 17:08:11 84° SSE 17:12:49 10° ENE daylight
26 Jan - 18:46:24 10° W 18:50:42 37° NNW 18:55:01 10° NE visible
26 Jan - 20:29:28 10° WNW 20:33:42 34° N 20:37:55 10° ENE visible
26 Jan - 22:11:44 10° WNW 22:16:22 76° NNE 22:21:00 10° ESE night (unlit)
26 Jan - 23:54:30 10° W 23:58:13 24° SW 00:01:55 10° S night (unlit)
27 Jan - 15:47:50 10° SSW 15:52:09 38° SE 15:56:28 10° ENE daylight
27 Jan - 17:29:40 10° WSW 17:34:15 55° NNW 17:38:49 10° NE visible
27 Jan - 19:12:55 10° WNW 19:17:05 31° N 19:21:14 10° ENE visible
27 Jan - 20:55:35 10° NW 21:00:01 44° NNE 21:04:27 10° E visible
27 Jan - 22:37:48 10° WNW 22:42:20 56° SW 22:46:51 10° SE night (unlit)
28 Jan - 14:33:32 10° S 14:36:23 16° SE 14:39:13 10° E daylight
28 Jan - 16:13:20 10° SW 16:18:01 79° SSE 16:22:39 10° ENE daylight
28 Jan - 17:56:09 10° W 18:00:30 38° NNW 18:04:50 10° NE visible
28 Jan - 19:39:17 10° WNW 19:43:29 33° N 19:47:41 10° ENE visible
28 Jan - 21:21:34 10° WNW 21:26:12 71° NNE 21:30:48 10° ESE visible
28 Jan - 23:04:14 10° W 23:08:05 26° SW 23:11:55 10° SSE night (unlit)
29 Jan - 14:57:45 10° SSW 15:02:00 35° SE 15:06:15 10° ENE daylight
29 Jan - 16:39:27 10° WSW 16:44:04 58° NNW 16:48:39 10° ENE daylight
29 Jan - 18:22:41 10° WNW 18:26:52 32° N 18:31:02 10° ENE visible
29 Jan - 20:05:24 10° NW 20:09:49 42° NNE 20:14:13 10° E visible
29 Jan - 21:47:37 10° WNW 21:52:11 61° SW 21:56:43 10° SE night (unlit)
29 Jan - 23:32:17 10° WSW 23:33:37 11° SW 23:34:59 10° SSW night (unlit)
30 Jan - 13:43:40 10° SSE 13:46:15 15° SE 13:48:50 10° E daylight
30 Jan - 15:23:10 10° SW 15:27:50 74° SSE 15:32:30 10° ENE daylight
30 Jan - 17:05:55 10° W 17:10:18 39° NNW 17:14:40 10° NE daylight
30 Jan - 18:49:04 10° WNW 18:53:17 33° N 18:57:28 10° ENE visible
30 Jan - 20:31:24 10° WNW 20:36:01 67° NNE 20:40:36 10° ESE visible
30 Jan - 22:14:00 10° WNW 22:17:57 28° SW 22:21:53 10° SSE night (unlit)
31 Jan - 14:07:40 10° SSW 14:11:52 32° SE 14:16:02 10° ENE daylight
31 Jan - 15:49:13 10° WSW 15:53:52 62° NNW 15:58:30 10° ENE daylight
31 Jan - 17:32:27 10° WNW 17:36:40 32° N 17:40:50 10° ENE daylight
31 Jan - 19:15:13 10° NW 19:19:38 41° NNE 19:24:00 10° E visible
31 Jan - 20:57:25 10° WNW 21:02:01 66° SW 21:06:35 10° SE visible
31 Jan - 22:41:36 10° WSW 22:43:31 12° SW 22:45:25 10° SSW night (unlit)
01 Feb - 12:53:52 10° SSE 12:56:08 13° SE 12:58:22 10° ESE daylight
01 Feb - 14:33:00 10° SW 14:37:40 68° SE 14:42:19 10° ENE daylight
01 Feb - 16:15:40 10° W 16:20:05 40° NNW 16:24:30 10° NE daylight
01 Feb - 17:58:51 10° WNW 18:03:04 32° N 18:07:15 10° ENE visible
01 Feb - 19:41:13 10° WNW 19:45:50 63° NNE 19:50:25 10° ESE visible
01 Feb - 21:23:45 10° WNW 21:27:49 31° SW 21:31:51 10° SSE visible
02 Feb - 13:17:36 10° SSW 13:21:43 30° SE 13:25:48 10° ENE daylight
02 Feb - 14:59:00 10° WSW 15:03:41 66° NNW 15:08:20 10° ENE daylight
02 Feb - 16:42:13 10° WNW 16:46:27 33° N 16:50:39 10° ENE daylight
02 Feb - 18:25:02 10° NW 18:29:25 39° NNE 18:33:47 10° E visible
02 Feb - 20:07:14 10° WNW 20:11:52 71° SSW 20:16:27 10° SE visible
02 Feb - 21:51:06 10° W 21:53:24 14° SW 21:55:42 10° SSW night (unlit)
